[[{"header":{"parameterUnit":"m.s-1","parameterCategory":1,"la1":30.2991,"la2":30.254,"lo1":-89.0895,"lo2":-89.0444,"dy":0.0017,"dx":0.0017,"nx":28,"ny":28,"refTime":"2024-04-14T09:00:00:Z","depth":0,"parameterNumber":2,"parameterNumberName":"U-component_of_WINDS"},"data":[0,0,0,0,0,0,0,0,0,0,0,0,0,0,0,0,0,0,0,0,0,0,0,0,0,0,0,0,0,0,0,0,0,0,0,0,0,0,0,0,0,0,0,0,0,0,0,0,0,0,0,0,0,0,0,0,0,0,-2.8093,-2.8093,0,-2.8124,-2.8125,-2.8125,-2.8107,-2.8106,-2.8105,-2.8104,-2.8133,-2.8135,-2.8137,0,0,0,0,0,0,0,0,0,0,0,0,0,-2.8013,-2.8015,-2.8093,-2.8093,-2.8094,-2.8124,-2.8125,-2.8125,-2.8107,-2.8106,-2.8105,-2.8103,-2.8133,-2.8135,-2.8137,0,0,0,0,0,0,0,0,0,0,0,0,0,-2.8046,-2.8015,-2.8093,-2.8088,-2.8088,-2.8124,-2.8125,-2.8125,-2.8107,-2.8106,-2.8104,-2.8103,-2.8132,-2.8135,-2.8137,-2.8179,0,0,-2.8144,-2.8145,0,0,0,0,0,0,0,0,-2.8045,-2.8049,-2.8088,-2.8088,-2.8088,-2.811,-2.8108,-2.8143,-2.8107,-2.81,-2.8104,-2.8102,-2.8127,-2.8129,-2.8138,-2.818,-2.8181,-2.8145,-2.8146,-2.8147,-2.8148,0,0,0,0,0,0,0,-2.8042,-2.8048,-2.8105,-2.8089,-2.8089,-2.8083,-2.8087,-2.8114,-2.812,-2.81,-2.8099,-2.8103,-2.8126,-2.8136,-2.8139,-2.8182,-2.8144,-2.8147,-2.8148,-2.8149,-2.8258,-2.8259,0,0,0,0,0,0,-2.8041,-2.8046,-2.8104,-2.8106,-2.8063,-2.8086,-2.809,-2.8105,-2.812,-2.8121,-2.8104,-2.8102,-2.8132,-2.8136,-2.814,-2.8188,-2.8147,-2.8149,-2.8151,-2.8256,-2.8258,-2.826,0,0,0,0,0,0,-2.8039,-2.8046,-2.8103,-2.8076,-2.8083,-2.8089,-2.8106,-2.8106,-2.8115,-2.8123,-2.8123,-2.8113,-2.8131,-2.8136,-2.8169,-2.8189,-2.815,-2.8153,-2.8255,-2.8257,-2.8259,-2.8286,0,0,0,0,0,0,-2.8037,-2.8046,-2.8062,-2.8076,-2.8084,-2.8133,-2.8107,-2.8107,-2.812,-2.8118,-2.8131,-2.8132,-2.8131,-2.8165,-2.8171,-2.8191,-2.8154,-2.8253,-2.8256,-2.8258,-2.8283,-2.8288,-2.8293,0,0,0,0,0,-2.8034,-2.8068,-2.8063,-2.807,-2.8105,-2.8134,-2.8138,-2.8136,-2.8122,-2.8138,-2.8142,-2.8132,-2.8186,-2.8169,-2.8175,-2.8196,-2.8252,-2.8255,-2.8258,-2.8281,-2.8287,-2.8293,0,0,0,0,0,0,-2.8055,-2.807,-2.8064,-2.8104,-2.8118,-2.8131,-2.8151,-2.8144,-2.8161,-2.8158,-2.8155,-2.8158,-2.8192,-2.8198,-2.8178,-2.8237,-2.8216,-2.8221,-2.8231,-2.8238,-2.8243,-2.8239,-2.8157,0,0,0,0,0,-2.8064,-2.8087,-2.8099,-2.8133,-2.814,-2.8145,-2.8157,-2.8155,-2.8168,-2.8174,-2.8181,-2.8194,-2.8213,-2.8226,-2.8245,-2.8285,-2.8286,-2.8302,-2.8307,-2.8312,-2.8315,-2.8334,-2.8341,-2.827,-2.827,-2.827,0,0,-2.8083,-2.8095,-2.8109,-2.8137,-2.8148,-2.817,-2.8149,-2.8174,-2.819,-2.8177,-2.8208,-2.8214,-2.8228,-2.8264,-2.828,-2.827,-2.8335,-2.8316,-2.8319,-2.832,-2.8338,-2.8345,-2.8351,-2.8273,-2.8272,-2.8272,0,0,-2.8129,-2.8141,-2.817,-2.8181,-2.8197,-2.82,-2.8207,-2.8221,-2.8225,-2.8256,-2.8246,-2.8265,-2.83,-2.831,-2.8319,-2.837,-2.836,-2.8376,-2.8402,-2.8421,-2.8427,-2.8431,-2.8447,-2.8453,-2.838,-2.838,-2.838,0,-2.8151,-2.8185,-2.8185,-2.8211,-2.8223,-2.8213,-2.8242,-2.8252,-2.8273,-2.8281,-2.827,-2.8313,-2.8322,-2.8359,-2.8372,-2.8381,-2.8387,-2.8373,-2.8426,-2.8431,-2.8435,-2.845,-2.8457,-2.8382,-2.8382,-2.8382,-2.8381,0,-2.821,-2.8234,-2.8255,-2.8277,-2.8291,-2.8318,-2.8321,-2.8336,-2.8333,-2.8336,-2.8368,-2.8379,-2.8399,-2.8408,-2.8405,-2.8445,-2.8438,-2.8427,-2.8405,-2.8444,-2.8458,-2.8464,-2.8384,-2.8384,-2.8383,-2.8383,0,0,-2.8268,-2.829,-2.8297,-2.8306,-2.8324,-2.8342,-2.8368,-2.8389,-2.8401,-2.8416,-2.8437,-2.8467,-2.8456,-2.8467,-2.8466,-2.8483,-2.852,-2.8469,-2.847,-2.8476,-2.8562,-2.8568,-2.8575,-2.8515,-2.8516,-2.8517,-2.856,0,-2.8313,-2.8359,-2.836,-2.8402,-2.8424,-2.8415,-2.8438,-2.845,-2.8455,-2.8473,-2.8477,-2.8498,-2.8484,-2.849,-2.8507,-2.8512,-2.8536,-2.8509,-2.8531,-2.8532,-2.8526,-2.8583,-2.859,-2.863,-2.8566,-2.8567,-2.8567,0,-2.8372,-2.8389,-2.8434,-2.8448,-2.8457,-2.8477,-2.8496,-2.8514,-2.8528,-2.8529,-2.8542,-2.8538,-2.8563,-2.8543,-2.8577,-2.8558,-2.8568,-2.8572,-2.8573,-2.8573,-2.855,-2.8582,-2.8643,-2.8648,-2.8576,-2.8576,-2.8575,0,-2.8407,-2.8442,-2.8473,-2.8481,-2.8499,-2.8513,-2.8521,-2.8534,-2.8546,-2.8562,-2.857,-2.8589,-2.8598,-2.8612,-2.8613,-2.8599,-2.8646,-2.8627,-2.8647,-2.8647,-2.8655,-2.8654,-2.8716,-2.8666,-2.8665,-2.8665,-2.8665,0,-2.8456,-2.8482,-2.8489,-2.8507,-2.8537,-2.8538,-2.8566,-2.8573,-2.8584,-2.8603,-2.8598,-2.8615,-2.8616,-2.8633,-2.8634,-2.8661,-2.8666,-2.8667,-2.8666,-2.8666,-2.8665,-2.867,-2.8666,-2.8667,-2.8667,-2.8666,-2.8666,0,-2.8499,-2.8504,-2.8537,-2.8551,-2.8556,-2.8576,-2.8588,-2.8605,-2.861,-2.8633,-2.8639,-2.8645,-2.8666,-2.8668,-2.8692,-2.8693,-2.8724,-2.8722,-2.8719,-2.8718,-2.8737,-2.8734,-2.8802,-2.881,-2.8757,-2.8757,-2.8758,0,-2.8528,-2.8549,-2.8566,-2.8579,-2.8587,-2.8608,-2.862,-2.8622,-2.8635,-2.8653,-2.8667,-2.8688,-2.8703,-2.8736,-2.8742,-2.876,-2.8757,-2.8779,-2.8759,-2.8758,-2.8754,-2.8752,-2.8753,-2.8782,-2.8783,-2.8783,-2.8784,0,-2.858,-2.8582,-2.86,-2.862,-2.8636,-2.8651,-2.8665,-2.8676,-2.8679,-2.8694,-2.8715,-2.8728,-2.8753,-2.8772,-2.879,-2.8796,-2.879,-2.8791,-2.8796,-2.8794,-2.8791,-2.8791,-2.8727,-2.8788,-2.8788,-2.8787,-2.8787,-2.8787,-2.8616,-2.8633,-2.8647,-2.8668,-2.868,-2.8693,-2.871,-2.8717,-2.8735,-2.8755,-2.8755,-2.8778,-2.8791,-2.8814,-2.8822,-2.8839,-2.8832,-2.884,-2.8841,-2.8843,-2.8843,-2.8791,-2.8843,-2.8843,-2.8843,-2.8843,-2.8843,0,-2.8665,-2.8674,-2.8693,-2.8714,-2.873,-2.8725,-2.8741,-2.8754,-2.8774,-2.8787,-2.8803,-2.8827,-2.8846,-2.8854,-2.8872,-2.8884,-2.8882,-2.8889,-2.8886,-2.8888,-2.885,-2.8843,-2.889,-2.889,-2.889,-2.889,-2.889,-2.889,-2.8692,-2.8721,-2.8724,-2.8758,-2.8767,-2.879,-2.8799,-2.8811,-2.8821,-2.8848,-2.8864,-2.887,-2.888,-2.8899,-2.8916,-2.8917,-2.8923,-2.8931,-2.8931,-2.8896,-2.8891,-2.8886,-2.8879,-2.8933,-2.8933,-2.8967,-2.8967,-2.8968]},{"header":{"parameterUnit":"m.s-1","parameterCategory":1,"la1":30.2991,"la2":30.254,"lo1":-89.0895,"lo2":-89.0444,"dy":0.0017,"dx":0.0017,"nx":28,"ny":28,"refTime":"2024-04-14T09:00:00:Z","depth":0,"parameterNumber":3,"parameterNumberName":"V-component_of_WINDS"},"data":[0,0,0,0,0,0,0,0,0,0,0,0,0,0,0,0,0,0,0,0,0,0,0,0,0,0,0,0,0,0,0,0,0,0,0,0,0,0,0,0,0,0,0,0,0,0,0,0,0,0,0,0,0,0,0,0,0,0,2.8084,2.8084,0,2.8091,2.8091,2.8091,2.8069,2.8069,2.8068,2.8067,2.8075,2.8076,2.8077,0,0,0,0,0,0,0,0,0,0,0,0,0,2.8054,2.8055,2.8084,2.8084,2.8084,2.8091,2.8091,2.8091,2.8069,2.8069,2.8068,2.8067,2.8075,2.8076,2.8077,0,0,0,0,0,0,0,0,0,0,0,0,0,2.8065,2.8055,2.8084,2.8074,2.8073,2.8091,2.8091,2.8091,2.807,2.8069,2.8068,2.8067,2.8074,2.8076,2.8077,2.8104,0,0,2.8081,2.8081,0,0,0,0,0,0,0,0,2.8064,2.8066,2.8076,2.8075,2.8074,2.8078,2.8083,2.8095,2.807,2.8071,2.8067,2.8066,2.8077,2.8078,2.8081,2.8104,2.8105,2.8081,2.8081,2.8082,2.8082,0,0,0,0,0,0,0,2.8063,2.8065,2.8087,2.8076,2.8075,2.807,2.807,2.8085,2.8079,2.8071,2.8069,2.807,2.8076,2.808,2.8081,2.8105,2.8081,2.8082,2.8082,2.8083,2.8153,2.8154,0,0,0,0,0,0,2.8064,2.8065,2.8086,2.8087,2.8066,2.8071,2.8072,2.8078,2.8079,2.8078,2.8071,2.8069,2.8079,2.808,2.8081,2.8115,2.8082,2.8083,2.8084,2.8152,2.8153,2.8154,0,0,0,0,0,0,2.8063,2.8066,2.8086,2.8075,2.8078,2.8073,2.808,2.8078,2.8082,2.8079,2.8078,2.8076,2.8078,2.808,2.8099,2.8114,2.8084,2.8085,2.815,2.8152,2.8153,2.818,0,0,0,0,0,0,2.8062,2.8066,2.8075,2.8076,2.8078,2.8103,2.8081,2.8079,2.8084,2.8082,2.8084,2.8083,2.8077,2.8097,2.81,2.8116,2.8086,2.8149,2.8151,2.8153,2.8178,2.8183,2.8187,0,0,0,0,0,2.8061,2.8083,2.8076,2.8079,2.809,2.8104,2.8105,2.8098,2.8086,2.8096,2.8094,2.8083,2.8112,2.8099,2.8102,2.8119,2.8148,2.815,2.8153,2.8176,2.8182,2.8187,0,0,0,0,0,0,2.8084,2.8082,2.8075,2.8097,2.8101,2.81,2.8113,2.8104,2.8111,2.8109,2.8099,2.81,2.8121,2.8122,2.8107,2.8146,2.8128,2.8131,2.8145,2.815,2.8154,2.8154,2.8087,0,0,0,0,0,2.8091,2.8102,2.81,2.812,2.8122,2.8117,2.8123,2.8117,2.812,2.8122,2.8122,2.8126,2.8136,2.8143,2.8152,2.8178,2.8179,2.8191,2.8195,2.8199,2.8202,2.8217,2.8223,2.8162,2.8162,2.8162,0,0,2.8107,2.8107,2.8115,2.8124,2.8127,2.8139,2.8119,2.8132,2.8141,2.8124,2.8142,2.8143,2.8147,2.817,2.818,2.8171,2.8219,2.8202,2.8205,2.8206,2.822,2.8226,2.8231,2.8164,2.8164,2.8163,0,0,2.8141,2.8143,2.816,2.8163,2.8166,2.8163,2.8168,2.8169,2.8168,2.8186,2.8175,2.8186,2.8203,2.8207,2.8212,2.825,2.824,2.8253,2.8276,2.8291,2.8296,2.83,2.8314,2.832,2.8256,2.8256,2.8256,0,2.816,2.8177,2.8169,2.8184,2.8189,2.8175,2.8193,2.8196,2.8203,2.8207,2.8197,2.822,2.8221,2.8246,2.8255,2.8259,2.8265,2.8253,2.8295,2.83,2.8303,2.8317,2.8323,2.8258,2.8258,2.8258,2.8257,0,2.8201,2.8213,2.8227,2.8234,2.8241,2.8257,2.8252,2.826,2.8254,2.8252,2.8272,2.8274,2.8284,2.8289,2.8283,2.8314,2.8308,2.8297,2.8279,2.8311,2.8324,2.8329,2.826,2.826,2.8259,2.8259,0,0,2.8249,2.8253,2.8258,2.8262,2.8266,2.8275,2.8292,2.8301,2.8309,2.8315,2.8329,2.8345,2.8335,2.834,2.8335,2.8348,2.8379,2.8335,2.8335,2.8344,2.8414,2.8423,2.8429,2.8373,2.8374,2.8375,2.8414,0,2.8284,2.8311,2.8305,2.8332,2.8344,2.8332,2.8346,2.835,2.835,2.836,2.836,2.8372,2.8357,2.8361,2.8373,2.8373,2.8394,2.837,2.8387,2.8388,2.8386,2.8436,2.8444,2.8481,2.8419,2.842,2.8421,0,2.8327,2.8335,2.8364,2.8367,2.8372,2.8385,2.8395,2.8405,2.841,2.8409,2.8416,2.8408,2.8425,2.8407,2.8431,2.8416,2.8422,2.8424,2.8425,2.8426,2.8406,2.8439,2.8493,2.8499,2.8428,2.8428,2.8427,0,2.8361,2.8378,2.8398,2.8402,2.8406,2.8416,2.8418,2.8422,2.8429,2.8438,2.8443,2.8453,2.8459,2.8468,2.8464,2.8451,2.849,2.8471,2.849,2.849,2.8498,2.8498,2.8555,2.8502,2.8502,2.8502,2.8502,0,2.84,2.8418,2.8413,2.8425,2.8446,2.8439,2.846,2.8461,2.8465,2.8478,2.8468,2.8481,2.8475,2.8487,2.8484,2.8505,2.8508,2.8508,2.8507,2.8509,2.8509,2.8514,2.8511,2.8504,2.8503,2.8503,2.8503,0,2.844,2.8438,2.8458,2.8461,2.8463,2.8478,2.8481,2.8493,2.8492,2.8508,2.8512,2.8511,2.8525,2.8522,2.8537,2.8536,2.8562,2.8558,2.8561,2.856,2.8579,2.8578,2.8641,2.8649,2.8591,2.8592,2.8592,0,2.8466,2.848,2.8485,2.8492,2.8496,2.8508,2.8516,2.8511,2.8519,2.8527,2.8538,2.8552,2.8562,2.8585,2.8586,2.8599,2.8595,2.8616,2.8597,2.8599,2.8596,2.8596,2.8598,2.862,2.8621,2.8621,2.8622,0,2.8512,2.851,2.8521,2.8532,2.8541,2.8549,2.8557,2.8564,2.8559,2.8569,2.8584,2.8592,2.8608,2.8622,2.8634,2.8637,2.8629,2.8628,2.8633,2.8636,2.8637,2.8637,2.8572,2.8627,2.8626,2.8626,2.8626,2.8625,2.8546,2.8558,2.8564,2.8577,2.8582,2.859,2.8601,2.8602,2.8614,2.8627,2.8624,2.864,2.8647,2.8662,2.8667,2.8681,2.8673,2.868,2.8682,2.8684,2.8687,2.8634,2.8683,2.8683,2.8683,2.8682,2.8682,0,2.8592,2.8596,2.8608,2.8619,2.8629,2.8621,2.8629,2.8639,2.8653,2.866,2.8671,2.8689,2.8702,2.8705,2.8718,2.8729,2.8726,2.8733,2.8732,2.8733,2.8693,2.8687,2.8735,2.8735,2.8735,2.8735,2.8735,2.8735,2.8617,2.8638,2.8638,2.8661,2.8665,2.8681,2.8687,2.8694,2.87,2.872,2.8731,2.8733,2.8738,2.8752,2.8765,2.8766,2.8771,2.878,2.8779,2.8741,2.8736,2.8731,2.8726,2.8781,2.8781,2.8819,2.8819,2.8819]}]]